EW6460 Weather Reports


Display with metric or nautical units.
time (UTC)temp
F
wind
direction
speed
MPH
gust
MPH
rain 1hr
in
rain 24hr
in
rain mn
in
humidity
%
barometer
mb
20260506234538 61 151 0.0 6.0 0.00 0.00 0.00 85 1010.2
20260506233016 61 151 0.0 3.0 0.00 0.00 0.00 85 1010.3
20260506231540 62 151 1.0 4.0 0.00 0.00 0.00 84 1009.9
20260506230036 62 150 1.0 5.0 0.00 0.00 0.00 84 1010.0
20260506224509 62 151 0.0 7.0 0.00 0.00 0.00 84 1010.0
20260506223042 62 151 0.0 5.0 0.00 0.00 0.00 83 1009.8
20260506221600 63 150 1.0 8.0 0.00 0.00 0.00 82 1009.8
20260506220036 63 150 2.0 8.0 0.00 0.00 0.00 82 1009.6
20260506214508 63 151 3.0 8.0 0.00 0.00 0.00 83 1009.7
20260506213037 63 151 0.0 9.0 0.00 0.00 0.00 83 1009.5
20260506211607 64 150 1.0 11.0 0.00 0.00 0.00 82 1009.3
20260506210052 65 151 1.0 7.0 0.00 0.00 0.00 82 1009.5
20260506204558 67 151 2.0 10.0 0.00 0.00 0.00 80 1009.6
20260506203028 66 150 1.0 7.0 0.00 0.00 0.00 83 1009.4
20260506201533 68 151 4.0 10.0 0.00 0.00 0.00 79 1009.8
20260506200010 68 151 1.0 14.0 0.00 0.00 0.00 82 1009.6
20260506194558 69 151 2.0 10.0 0.00 0.00 0.00 81 1009.3
20260506194506 69 150 2.0 10.0 0.00 0.00 0.00 80 1009.4
20260506193048 69 151 2.0 7.0 0.00 0.00 0.00 79 1009.3
20260506191531 70 151 2.0 11.0 0.00 0.00 0.00 80 1009.3
20260506190059 74 151 1.0 8.0 0.00 0.00 0.00 76 1009.2
20260506184535 79 150 1.0 7.0 0.00 0.00 0.00 69 1009.3
20260506183050 81 150 0.0 2.0 0.00 0.00 0.00 68 1009.1
20260506181517 80 149 0.0 1.0 0.00 0.00 0.00 70 1008.9
20260506180050 79 150 0.0 1.0 0.00 0.00 0.00 69 1009.1
20260506174520 79 150 0.0 3.0 0.00 0.00 0.00 72 1008.9
20260506173049 77 150 0.0 2.0 0.00 0.00 0.00 72 1008.9
20260506171520 74 149 0.0 2.0 0.00 0.00 0.00 76 1009.1
20260506170100 73 150 0.0 2.0 0.00 0.00 0.00 80 1009.1
20260506164515 69 149 0.0 3.0 0.00 0.00 0.00 82 1009.5
20260506163009 67 150 0.0 4.0 0.00 0.00 0.00 84 1009.5
20260506161544 65 150 1.0 8.0 0.00 0.00 0.00 87 1009.9
20260506160030 67 150 4.0 17.0 0.00 0.00 0.00 85 1010.7
20260506154516 71 150 0.0 5.0 0.00 0.00 0.00 82 1009.6
20260506153009 76 149 0.0 0.0 0.00 0.00 0.00 88 1009.2
20260506151540 76 150 0.0 1.0 0.00 0.00 0.00 87 1008.5
20260506150057 76 149 0.0 0.0 0.00 0.00 0.00 87 1008.6
20260506144531 76 149 0.0 2.0 0.00 0.00 0.00 88 1008.2
20260506143053 75 150 0.0 1.0 0.00 0.00 0.00 90 1008.2
20260506141517 74 151 0.0 3.0 0.00 0.00 0.00 92 1007.5
20260506140051 74 151 0.0 0.0 0.00 0.00 0.00 93 1008.0
20260506134517 73 150 0.0 0.0 0.00 0.00 0.00 93 1007.6
20260506133047 73 150 0.0 0.0 0.00 0.00 0.00 93 1007.3
20260506131517 73 151 0.0 2.0 0.00 0.00 0.00 94 1007.2
20260506130037 73 151 0.0 1.0 0.00 0.00 0.00 94 1007.0
20260506124512 72 150 0.0 0.0 0.00 0.00 0.00 95 1006.8
20260506123041 72 150 0.0 0.0 0.00 0.00 0.00 94 1006.8
20260506121520 72 150 0.0 0.0 0.00 0.00 0.00 94 1006.9
20260506120109 72 150 0.0 0.0 0.00 0.00 0.00 94 1006.9
20260506114512 72 150 0.0 0.0 0.00 0.00 0.00 94 1006.8
20260506113039 72 150 0.0 0.0 0.00 0.00 0.00 94 1006.8
20260506111521 72 151 0.0 0.0 0.00 0.00 0.00 94 1006.9
20260506110025 72 150 0.0 0.0 0.00 0.00 0.00 94 1006.7
20260506104556 72 150 0.0 1.0 0.00 0.00 0.00 94 1006.6
20260506103036 72 151 0.0 2.0 0.00 0.00 0.00 94 1006.5
20260506101559 72 149 0.0 4.0 0.00 0.00 0.00 94 1006.3
20260506101502 72 151 0.0 4.0 0.00 0.00 0.00 94 1006.3
20260506100025 72 150 1.0 6.0 0.00 0.00 0.00 95 1006.1
20260506094557 72 150 0.0 6.0 0.00 0.00 0.00 95 1006.0
20260506093026 72 151 1.0 5.0 0.00 0.00 0.00 95 1005.9
20260506091545 72 150 1.0 6.0 0.00 0.00 0.00 94 1005.6
20260506090019 73 150 1.0 6.0 0.00 0.00 0.00 93 1005.6
20260506084547 73 150 1.0 5.0 0.00 0.00 0.00 93 1005.5
20260506083020 73 150 1.0 7.0 0.00 0.00 0.00 93 1005.6
20260506081553 73 151 3.0 6.0 0.00 0.00 0.00 93 1005.6
20260506073007 73 151 1.0 8.0 0.00 0.00 0.00 91 1006.0
20260506071555 73 150 2.0 7.0 0.00 0.00 0.00 91 1006.0
20260506061602 74 150 2.0 6.0 0.00 0.00 0.00 91 1006.0
20260506044556 74 149 2.0 6.0 0.00 0.00 0.00 91 1006.5
20260506043029 74 150 1.0 6.0 0.00 0.00 0.00 91 1006.3
20260506041556 74 149 0.0 4.0 0.00 0.00 0.00 91 1006.3
20260506040028 74 150 0.0 4.0 0.00 0.00 0.00 91 1006.0
20260506034552 74 151 0.0 5.0 0.00 0.00 0.00 91 1005.7
20260506033028 74 150 0.0 2.0 0.00 0.00 0.00 90 1005.8
20260506031603 75 150 0.0 3.0 0.00 0.00 0.00 89 1005.5
20260506030029 75 150 1.0 5.0 0.00 0.00 0.00 88 1005.3
20260506024550 76 151 1.0 6.0 0.00 0.00 0.00 87 1005.2
20260506023022 76 151 0.0 1.0 0.00 0.00 0.00 86 1004.9
20260506021554 76 150 0.0 4.0 0.00 0.00 0.00 86 1004.6
20260506020020 76 150 0.0 3.0 0.00 0.00 0.00 85 1004.3
20260506014512 77 150 0.0 3.0 0.00 0.00 0.00 84 1004.2
20260506013046 77 149 1.0 4.0 0.00 0.00 0.00 82 1003.9
20260506011528 78 149 0.0 3.0 0.00 0.00 0.00 80 1004.0
20260506010101 79 149 0.0 3.0 0.00 0.00 0.00 78 1004.0
20260506004533 80 149 0.0 1.0 0.00 0.00 0.00 76 1004.0
20260506003012 81 149 0.0 3.0 0.00 0.00 0.00 75 1004.0
20260506001536 81 149 0.0 4.0 0.00 0.00 0.00 74 1004.0
20260506000010 81 151 0.0 6.0 0.00 0.00 0.00 74 1003.9